Location: De Har
(53.3413°N, 6.6858°E)
Time: 17:17:54
(UTC+00:00)

Cosmos 990 Rocket - Pass Details

Date: 22 April 2026
Orbit: 743 x 763 km, 74.0° (Epoch: 9 May)

Event Time Altitude Azimuth Distance (km) Brightness Sun altitude
Rises 02:02:33 0° 332° (NNW) 3,197 7.5 -17.0°
Reaches altitude 10° 02:04:56 10° 330° (NNW) 2,270 6.7 -16.8°
Maximum altitude 02:10:02 69° 249° (WSW) 800 3.9 -16.3°
Drops below altitude 10° 02:15:07 10° 166° (SSE) 2,262 6.1 -15.8°
Enters shadow 02:15:54 - 165° (SSE) 2,563 6.4 -15.7°
